| time (UTC) | temp F | wind direction | speed MPH | gust MPH | rain 1hr in | rain 24hr in | rain mn in | humidity % | barometer mb |
| 20260831112026 | 82 | 0 | 0.0 | 0.0 | 0.00 | 0.00 | 0.04 | 53 | |
| 20260831111020 | 82 | 0 | 0.0 | 0.0 | 0.00 | 0.00 | 0.04 | 52 | |
| 20260831110032 | 82 | 0 | 0.0 | 0.0 | 0.00 | 0.00 | 0.04 | 52 | |
| 20260831105032 | 81 | 0 | 0.0 | 0.0 | 0.00 | 0.00 | 0.04 | 53 | |
| 20260831102033 | 80 | 0 | 0.0 | 0.0 | 0.00 | 0.00 | 0.04 | 55 | |
| 20260831101026 | 80 | 0 | 0.0 | 0.0 | 0.00 | 0.00 | 0.04 | 54 | |
| 20260831100037 | 80 | 0 | 0.0 | 0.0 | 0.00 | 0.00 | 0.04 | 55 | |
| 20260831095032 | 80 | 0 | 0.0 | 0.0 | 0.00 | 0.00 | 0.04 | 56 | |
| 20260831094032 | 79 | 0 | 0.0 | 0.0 | 0.00 | 0.00 | 0.04 | 58 | |
| 20260831093039 | 78 | 0 | 0.0 | 0.0 | 0.00 | 0.00 | 0.04 | 58 | |
| 20260831092035 | 79 | 0 | 0.0 | 0.0 | 0.00 | 0.00 | 0.04 | 59 | |
| 20260831085022 | 75 | 0 | 0.0 | 0.0 | 0.00 | 0.00 | 0.04 | 64 | |
| 20260831084035 | 74 | 0 | 0.0 | 0.0 | 0.00 | 0.00 | 0.04 | 64 | |
| 20260831083028 | 75 | 0 | 0.0 | 0.0 | 0.00 | 0.00 | 0.04 | 63 | |
| 20260831082025 | 78 | 0 | 0.0 | 0.0 | 0.00 | 0.00 | 0.04 | 63 | |
| 20260831075019 | 75 | 0 | 0.0 | 0.0 | 0.00 | 0.00 | 0.04 | 69 | |
| 20260831074026 | 73 | 0 | 0.0 | 0.0 | 0.00 | 0.00 | 0.04 | 71 | |
| 20260831072020 | 69 | 0 | 0.0 | 0.0 | 0.00 | 0.00 | 0.04 | 75 | |
| 20260831065032 | 70 | 0 | 0.0 | 0.0 | 0.00 | 0.00 | 0.04 | 77 | |
| 20260831064022 | 68 | 0 | 0.0 | 0.0 | 0.00 | 0.00 | 0.04 | 79 | |
| 20260831062033 | 65 | 0 | 0.0 | 0.0 | 0.00 | 0.00 | 0.04 | 83 | |
| 20260831061028 | 64 | 0 | 0.0 | 0.0 | 0.00 | 0.00 | 0.04 | 85 | |
| 20260831060038 | 64 | 0 | 0.0 | 0.0 | 0.00 | 0.00 | 0.04 | 85 | |
| 20260831055024 | 64 | 0 | 0.0 | 0.0 | 0.00 | 0.00 | 0.04 | 87 | |
| 20260831054025 | 63 | 0 | 0.0 | 0.0 | 0.00 | 0.00 | 0.04 | 87 | |
| 20260831052033 | 63 | 0 | 0.0 | 0.0 | 0.00 | 0.00 | 0.04 | 88 | |
| 20260831051020 | 63 | 0 | 0.0 | 0.0 | 0.00 | 0.00 | 0.04 | 88 | |
| 20260831050040 | 63 | 0 | 0.0 | 0.0 | 0.00 | 0.00 | 0.04 | 88 | |
| 20260831045023 | 63 | 0 | 0.0 | 0.0 | 0.00 | 0.00 | 0.04 | 88 | |
| 20260831042035 | 63 | 0 | 0.0 | 0.0 | 0.04 | 0.00 | 0.04 | 86 | |
| 20260831035030 | 64 | 0 | 0.0 | 0.0 | 0.04 | 0.00 | 0.04 | 86 | |
| 20260831034034 | 64 | 0 | 0.0 | 0.0 | 0.04 | 0.00 | 0.04 | 85 | |
| 20260831033034 | 65 | 0 | 0.0 | 0.0 | 0.03 | 0.00 | 0.03 | 86 | |
| 20260831032029 | 65 | 0 | 0.0 | 0.0 | 0.00 | 0.00 | 0.00 | 85 | |
| 20260831031028 | 66 | 0 | 0.0 | 0.0 | 0.00 | 0.00 | 0.00 | 84 | |
| 20260831030047 | 66 | 0 | 0.0 | 0.0 | 0.00 | 0.00 | 0.00 | 84 | |
| 20260831025021 | 66 | 0 | 0.0 | 0.0 | 0.00 | 0.00 | 0.00 | 85 | |
| 20260831024033 | 66 | 0 | 0.0 | 0.0 | 0.00 | 0.00 | 0.00 | 84 | |
| 20260831023026 | 66 | 0 | 0.0 | 0.0 | 0.00 | 0.00 | 0.00 | 84 | |
| 20260831022033 | 66 | 0 | 0.0 | 0.0 | 0.00 | 0.00 | 0.00 | 84 | |
| 20260831021018 | 66 | 0 | 0.0 | 0.0 | 0.00 | 0.00 | 0.00 | 84 | |
| 20260831020044 | 66 | 0 | 0.0 | 0.0 | 0.00 | 0.00 | 0.00 | 84 | |
| 20260831014019 | 66 | 0 | 0.0 | 0.0 | 0.00 | 0.00 | 0.00 | 84 | |
| 20260831013023 | 66 | 0 | 0.0 | 0.0 | 0.00 | 0.00 | 0.00 | 84 | |
| 20260831012025 | 66 | 0 | 0.0 | 0.0 | 0.00 | 0.00 | 0.00 | 84 | |
| 20260831011028 | 66 | 0 | 0.0 | 0.0 | 0.00 | 0.00 | 0.00 | 84 | |
| 20260831005021 | 66 | 0 | 0.0 | 0.0 | 0.00 | 0.00 | 0.00 | 85 | |
| 20260831004034 | 66 | 0 | 0.0 | 0.0 | 0.00 | 0.00 | 0.00 | 84 | |
| 20260831003033 | 66 | 0 | 0.0 | 0.0 | 0.00 | 0.00 | 0.00 | 84 | |
| 20260831002026 | 67 | 0 | 0.0 | 0.0 | 0.00 | 0.00 | 0.00 | 84 | |
| 20260831001020 | 67 | 0 | 0.0 | 0.0 | 0.00 | 0.00 | 0.00 | 84 | |
| 20260831000042 | 67 | 0 | 0.0 | 0.0 | 0.00 | 0.00 | 0.00 | 83 | |
| 20260830235024 | 67 | 0 | 0.0 | 0.0 | 0.00 | 0.00 | 0.00 | 83 | |
| 20260830234030 | 67 | 0 | 0.0 | 0.0 | 0.00 | 0.00 | 0.00 | 83 | |
| 20260830232027 | 67 | 0 | 0.0 | 0.0 | 0.00 | 0.00 | 0.00 | 83 | |
| 20260830231022 | 68 | 0 | 0.0 | 0.0 | 0.00 | 0.00 | 0.00 | 83 | |
| 20260830230038 | 68 | 0 | 0.0 | 0.0 | 0.00 | 0.00 | 0.00 | 82 | |
| 20260830225027 | 68 | 0 | 0.0 | 0.0 | 0.00 | 0.00 | 0.00 | 82 | |
| 20260830224030 | 68 | 0 | 0.0 | 0.0 | 0.00 | 0.00 | 0.00 | 81 | |
| 20260830223035 | 68 | 0 | 0.0 | 0.0 | 0.00 | 0.00 | 0.00 | 81 | |
| 20260830222030 | 68 | 0 | 0.0 | 0.0 | 0.00 | 0.00 | 0.00 | 80 | |
| 20260830221024 | 68 | 0 | 0.0 | 0.0 | 0.00 | 0.00 | 0.00 | 80 | |
| 20260830215027 | 67 | 0 | 0.0 | 0.0 | 0.00 | 0.00 | 0.00 | 83 | |
| 20260830214031 | 68 | 0 | 0.0 | 0.0 | 0.00 | 0.00 | 0.00 | 82 | |
| 20260830213032 | 68 | 0 | 0.0 | 0.0 | 0.00 | 0.00 | 0.00 | 82 | |
| 20260830211025 | 68 | 0 | 0.0 | 0.0 | 0.00 | 0.00 | 0.00 | 82 | |
| 20260830204022 | 68 | 0 | 0.0 | 0.0 | 0.00 | 0.00 | 0.00 | 82 | |
| 20260830203031 | 68 | 0 | 0.0 | 0.0 | 0.00 | 0.00 | 0.00 | 82 | |
| 20260830202026 | 68 | 0 | 0.0 | 0.0 | 0.00 | 0.00 | 0.00 | 82 | |
| 20260830201034 | 68 | 0 | 0.0 | 0.0 | 0.00 | 0.00 | 0.00 | 81 | |
| 20260830200040 | 68 | 0 | 0.0 | 0.0 | 0.00 | 0.00 | 0.00 | 81 | |
| 20260830194027 | 69 | 0 | 0.0 | 0.0 | 0.00 | 0.00 | 0.00 | 80 | |
| 20260830193033 | 69 | 0 | 0.0 | 0.0 | 0.00 | 0.00 | 0.00 | 80 | |
| 20260830192026 | 69 | 0 | 0.0 | 0.0 | 0.00 | 0.00 | 0.00 | 79 | |
| 20260830191032 | 70 | 0 | 0.0 | 0.0 | 0.00 | 0.00 | 0.00 | 78 | |
| 20260830190037 | 70 | 0 | 0.0 | 0.0 | 0.00 | 0.00 | 0.00 | 77 | |
| 20260830185028 | 71 | 0 | 0.0 | 0.0 | 0.00 | 0.00 | 0.00 | 75 | |
| 20260830183027 | 74 | 0 | 0.0 | 0.0 | 0.00 | 0.00 | 0.00 | 72 | |
| 20260830182030 | 74 | 0 | 0.0 | 0.0 | 0.00 | 0.00 | 0.00 | 71 | |
| 20260830181023 | 74 | 0 | 0.0 | 0.0 | 0.00 | 0.00 | 0.00 | 70 | |
| 20260830180052 | 75 | 0 | 0.0 | 0.0 | 0.00 | 0.00 | 0.00 | 70 | |
| 20260830175030 | 75 | 0 | 0.0 | 0.0 | 0.00 | 0.00 | 0.00 | 69 | |
| 20260830174033 | 76 | 0 | 0.0 | 0.0 | 0.00 | 0.00 | 0.00 | 66 | |
| 20260830173033 | 77 | 0 | 0.0 | 0.0 | 0.00 | 0.00 | 0.00 | 64 | |
| 20260830171026 | 78 | 0 | 0.0 | 0.0 | 0.00 | 0.00 | 0.00 | 61 | |
| 20260830170039 | 78 | 0 | 0.0 | 0.0 | 0.00 | 0.00 | 0.00 | 61 | |
| 20260830164032 | 79 | 0 | 0.0 | 0.0 | 0.00 | 0.00 | 0.00 | 61 | |
| 20260830163030 | 80 | 0 | 0.0 | 0.0 | 0.00 | 0.00 | 0.00 | 58 | |
| 20260830162034 | 80 | 0 | 0.0 | 0.0 | 0.00 | 0.00 | 0.00 | 58 | |
| 20260830161029 | 80 | 0 | 0.0 | 0.0 | 0.00 | 0.00 | 0.00 | 58 | |
| 20260830160030 | 81 | 0 | 0.0 | 0.0 | 0.00 | 0.00 | 0.00 | 56 | |
| 20260830155034 | 81 | 0 | 0.0 | 0.0 | 0.00 | 0.00 | 0.00 | 54 | |
| 20260830154031 | 82 | 0 | 0.0 | 0.0 | 0.00 | 0.00 | 0.00 | 51 | |
| 20260830153051 | 82 | 0 | 0.0 | 0.0 | 0.00 | 0.00 | 0.00 | 51 | |
| 20260830152034 | 83 | 0 | 0.0 | 0.0 | 0.00 | 0.00 | 0.00 | 47 | |
| 20260830151030 | 83 | 0 | 0.0 | 0.0 | 0.00 | 0.00 | 0.00 | 47 | |
| 20260830150034 | 84 | 0 | 0.0 | 0.0 | 0.00 | 0.00 | 0.00 | 47 | |
| 20260830145033 | 85 | 0 | 0.0 | 0.0 | 0.00 | 0.00 | 0.00 | 45 | |
| 20260830143030 | 85 | 0 | 0.0 | 0.0 | 0.00 | 0.00 | 0.00 | 45 | |
| 20260830141021 | 86 | 0 | 0.0 | 0.0 | 0.00 | 0.00 | 0.00 | 45 | |
| 20260830135032 | 87 | 0 | 0.0 | 0.0 | 0.00 | 0.00 | 0.00 | 44 | |
| 20260830134022 | 87 | 0 | 0.0 | 0.0 | 0.00 | 0.00 | 0.00 | 44 | |
| 20260830133027 | 87 | 0 | 0.0 | 0.0 | 0.00 | 0.00 | 0.00 | 43 | |
| 20260830132020 | 87 | 0 | 0.0 | 0.0 | 0.00 | 0.00 | 0.00 | 43 | |
| 20260830131029 | 86 | 0 | 0.0 | 0.0 | 0.00 | 0.00 | 0.00 | 43 | |
| 20260830130034 | 86 | 0 | 0.0 | 0.0 | 0.00 | 0.00 | 0.00 | 43 | |
| 20260830125021 | 87 | 0 | 0.0 | 0.0 | 0.00 | 0.00 | 0.00 | 43 | |
| 20260830124029 | 87 | 0 | 0.0 | 0.0 | 0.00 | 0.00 | 0.00 | 44 | |
| 20260830123028 | 86 | 0 | 0.0 | 0.0 | 0.00 | 0.00 | 0.00 | 45 | |
| 20260830122021 | 86 | 0 | 0.0 | 0.0 | 0.00 | 0.00 | 0.00 | 45 | |
| 20260830121032 | 86 | 0 | 0.0 | 0.0 | 0.00 | 0.00 | 0.00 | 45 | |
| 20260830120040 | 87 | 0 | 0.0 | 0.0 | 0.00 | 0.00 | 0.00 | 45 | |
| 20260830115020 | 87 | 0 | 0.0 | 0.0 | 0.00 | 0.00 | 0.00 | 45 | |
| 20260830114032 | 86 | 0 | 0.0 | 0.0 | 0.00 | 0.00 | 0.00 | 45 | |
| 20260830113038 | 85 | 0 | 0.0 | 0.0 | 0.00 | 0.00 | 0.00 | 46 |